Location: Roland
(31.1349°N, 85.4372°W)
Time: 00:56:41
(UTC+00:00)

Transit 4A - Visible Passes

Search period start: 19 April 2021 00:00
Search period end: 29 April 2021 00:00
Orbit: 869 x 975 km, 66.8° (Epoch: 18 April)

Date Brightness Start Highest point End Pass type
(mag) Time Alt. Az. Time Alt. Az. Time Alt. Az.
19 Apr 10.5 06:01:26 14° N 06:01:26 14° N 06:02:19 10° N visible
20 Apr 10.5 06:10:03 13° NNW 06:10:03 13° NNW 06:10:54 10° N visible
21 Apr 10.5 04:35:06 11° NNE 04:35:06 11° NNE 04:35:21 10° NNE visible
21 Apr 10.6 06:18:34 10° NNW 06:18:34 10° NNW 06:18:49 10° NNW visible
22 Apr 10.3 04:43:34 15° NNE 04:43:34 15° NNE 04:44:32 10° NNE visible
23 Apr 10.2 04:51:56 18° N 04:51:56 18° N 04:53:32 10° N visible
24 Apr 10.3 03:16:43 10° NE 03:16:43 10° NE 03:16:44 10° NE visible
24 Apr 10.2 05:00:09 18° NNW 05:00:09 18° NNW 05:02:19 10° N visible
25 Apr 9.9 03:24:46 18° NNE 03:24:46 18° NNE 03:26:15 10° NNE visible
25 Apr 10.3 05:08:12 16° NW 05:08:12 16° NW 05:10:44 10° NNW visible
26 Apr 9.3 03:32:35 30° NNE 03:32:35 30° NNE 03:35:33 10° NNE visible
26 Apr 10.6 05:15:59 10° NW 05:16:39 11° NW 05:17:55 10° NW visible
27 Apr 9.8 01:56:37 12° ENE 01:56:37 12° ENE 01:57:18 10° ENE visible
27 Apr 8.9 03:39:59 43° NNW 03:39:59 43° NNW 03:44:40 10° NNE visible
28 Apr 8.7 02:03:17 31° E 02:03:17 31° E 02:07:22 10° NE visible
28 Apr 9.4 03:46:33 28° W 03:48:10 32° WNW 03:53:36 10° N visible
